When you browse on this site, cookies collect data to enhance your experience and personalize the content and advertising you see.
Visit our Privacy Policy to learn more. By continuing to use the site, you agree to this use of cookies and data.
  • In United Kingdom
  • List of Countries
  • For 7 days
  • Water Temperature
  • Weather Map
  • Weather Widgets
  • user-avatar
    Login

    Hourly Weather Hamburg

    Today, 21 August, Wednesday

    Time Temperature Precipitation Wind Pressure Humidity
    00:00 +14°C° 0 mm 2 mps 767 mmHg 91%
    01:00 +13°C° 0 mm 2 mps 767 mmHg 92%
    02:00 +13°C° 0 mm 2 mps 767 mmHg 93%
    03:00 +12°C° 0 mm 2 mps 767 mmHg 94%
    04:00 +12°C° 0 mm 2 mps 768 mmHg 95%
    05:00 +11°C° 0 mm 3 mps 768 mmHg 93%
    06:00 +12°C° 0 mm 3 mps 768 mmHg 91%
    07:00 +13°C° 0 mm 3 mps 769 mmHg 89%
    08:00 +14°C° 0 mm 3 mps 769 mmHg 83%
    09:00 +17°C° 0 mm 3 mps 769 mmHg 76%
    10:00 +18°C° 0 mm 3 mps 770 mmHg 70%
    11:00 +19°C° 0.1 mm 3 mps 769 mmHg 65%
    12:00 +20°C° 0.1 mm 3 mps 769 mmHg 61%
    13:00 +21°C° 0.1 mm 4 mps 769 mmHg 56%
    14:00 +21°C° 0 mm 3 mps 769 mmHg 56%
    15:00 +21°C° 0 mm 3 mps 769 mmHg 56%
    16:00 +21°C° 0 mm 3 mps 769 mmHg 55%
    17:00 +20°C° 0 mm 2 mps 769 mmHg 62%
    18:00 +20°C° 0 mm 1 mps 769 mmHg 68%
    19:00 +19°C° 0 mm 1 mps 769 mmHg 74%
    20:00 +18°C° 0 mm 1 mps 769 mmHg 76%
    21:00 +16°C° 0 mm 1 mps 769 mmHg 78%
    22:00 +15°C° 0 mm 1 mps 769 mmHg 80%
    23:00 +14°C° 0 mm 1 mps 769 mmHg 82%

    Tomorrow, 22 August, Thursday

    Time Temperature Precipitation Wind Pressure Humidity
    00:00 +14°C° 0 mm 1 mps 769 mmHg 84%
    01:00 +14°C° 0 mm 2 mps 769 mmHg 86%
    02:00 +13°C° 0 mm 2 mps 769 mmHg 85%
    03:00 +13°C° 0 mm 2 mps 769 mmHg 85%
    04:00 +13°C° 0 mm 2 mps 768 mmHg 85%
    05:00 +14°C° 0 mm 2 mps 769 mmHg 82%
    06:00 +14°C° 0 mm 2 mps 769 mmHg 79%
    07:00 +15°C° 0 mm 2 mps 769 mmHg 75%
    08:00 +17°C° 0 mm 3 mps 768 mmHg 68%
    09:00 +19°C° 0 mm 3 mps 768 mmHg 61%
    10:00 +22°C° 0 mm 3 mps 768 mmHg 53%
    11:00 +23°C° 0 mm 4 mps 768 mmHg 50%
    12:00 +25°C° 0 mm 4 mps 768 mmHg 47%
    13:00 +26°C° 0 mm 4 mps 767 mmHg 44%
    14:00 +26°C° 0 mm 4 mps 767 mmHg 44%
    15:00 +26°C° 0 mm 3 mps 767 mmHg 45%
    16:00 +26°C° 0 mm 3 mps 767 mmHg 46%
    17:00 +24°C° 0 mm 3 mps 767 mmHg 54%
    18:00 +23°C° 0 mm 2 mps 767 mmHg 61%
    19:00 +21°C° 0 mm 1 mps 767 mmHg 69%
    20:00 +20°C° 0 mm 1 mps 767 mmHg 74%
    21:00 +18°C° 0 mm 1 mps 768 mmHg 78%
    22:00 +16°C° 0 mm 1 mps 768 mmHg 83%
    23:00 +16°C° 0 mm 1 mps 768 mmHg 83%

    Day after tomorrow, 23 August, Friday

    Time Temperature Precipitation Wind Pressure Humidity
    00:00 +15°C° 0 mm 1 mps 768 mmHg 84%
    01:00 +14°C° 0 mm 0 mps 768 mmHg 84%
    02:00 +14°C° 0 mm 0 mps 768 mmHg 85%
    03:00 +14°C° 0 mm 0 mps 768 mmHg 86%
    04:00 +13°C° 0 mm 0 mps 768 mmHg 87%
    05:00 +14°C° 0 mm 0 mps 768 mmHg 84%
    06:00 +15°C° 0 mm 0 mps 768 mmHg 81%
    07:00 +18°C° 0 mm 1 mps 768 mmHg 78%
    08:00 +20°C° 0 mm 1 mps 768 mmHg 71%
    09:00 +22°C° 0 mm 1 mps 768 mmHg 63%
    10:00 +24°C° 0 mm 1 mps 768 mmHg 56%
    11:00 +25°C° 0 mm 1 mps 768 mmHg 52%
    12:00 +26°C° 0 mm 2 mps 768 mmHg 48%
    13:00 +27°C° 0 mm 2 mps 767 mmHg 44%
    14:00 +26°C° 0 mm 2 mps 767 mmHg 45%
    15:00 +26°C° 0 mm 2 mps 767 mmHg 46%
    16:00 +26°C° 0 mm 2 mps 767 mmHg 47%
    17:00 +24°C° 0 mm 2 mps 767 mmHg 55%
    18:00 +23°C° 0 mm 2 mps 767 mmHg 63%
    19:00 +20°C° 0 mm 2 mps 767 mmHg 70%
    20:00 +19°C° 0 mm 2 mps 767 mmHg 70%
    21:00 +18°C° 0 mm 2 mps 767 mmHg 71%
    22:00 +17°C° 0 mm 2 mps 767 mmHg 71%
    23:00 +17°C° 0 mm 2 mps 767 mmHg 73%

    24 August, Saturday

    Time Temperature Precipitation Wind Pressure Humidity
    00:00 +17°C° 0 mm 2 mps 767 mmHg 75%
    01:00 +16°C° 0 mm 1 mps 767 mmHg 77%
    02:00 +16°C° 0 mm 1 mps 767 mmHg 78%
    03:00 +16°C° 0 mm 1 mps 767 mmHg 79%
    04:00 +16°C° 0 mm 1 mps 766 mmHg 80%
    05:00 +16°C° 0 mm 1 mps 766 mmHg 79%
    06:00 +18°C° 0 mm 1 mps 766 mmHg 78%
    07:00 +18°C° 0 mm 1 mps 766 mmHg 76%
    08:00 +21°C° 0 mm 1 mps 766 mmHg 70%
    09:00 +23°C° 0 mm 2 mps 767 mmHg 63%
    10:00 +25°C° 0 mm 2 mps 767 mmHg 57%
    11:00 +26°C° 0 mm 2 mps 766 mmHg 52%
    12:00 +27°C° 0 mm 2 mps 766 mmHg 48%
    13:00 +28°C° 0 mm 2 mps 766 mmHg 44%
    14:00 +28°C° 0 mm 3 mps 765 mmHg 44%
    15:00 +28°C° 0 mm 3 mps 765 mmHg 45%
    16:00 +28°C° 0 mm 3 mps 765 mmHg 46%
    17:00 +26°C° 0 mm 3 mps 765 mmHg 54%
    18:00 +24°C° 0 mm 3 mps 764 mmHg 62%
    19:00 +21°C° 0 mm 3 mps 764 mmHg 69%
    20:00 +20°C° 0 mm 3 mps 765 mmHg 71%
    21:00 +20°C° 0 mm 3 mps 765 mmHg 73%
    22:00 +19°C° 0 mm 3 mps 765 mmHg 75%
    23:00 +18°C° 0 mm 3 mps 765 mmHg 74%

    25 August, Sunday

    Time Temperature Precipitation Wind Pressure Humidity
    00:00 +18°C° 0 mm 3 mps 765 mmHg 73%
    01:00 +18°C° 0 mm 2 mps 764 mmHg 73%
    02:00 +17°C° 0 mm 2 mps 764 mmHg 74%
    03:00 +17°C° 0 mm 2 mps 764 mmHg 76%
    04:00 +16°C° 0 mm 2 mps 764 mmHg 77%
    05:00 +17°C° 0 mm 2 mps 764 mmHg 77%
    06:00 +18°C° 0 mm 2 mps 764 mmHg 76%
    07:00 +18°C° 0 mm 2 mps 764 mmHg 76%
    08:00 +20°C° 0 mm 3 mps 764 mmHg 70%
    09:00 +22°C° 0 mm 3 mps 764 mmHg 64%
    10:00 +25°C° 0 mm 3 mps 764 mmHg 57%
    11:00 +26°C° 0 mm 3 mps 764 mmHg 54%
    12:00 +28°C° 0 mm 3 mps 763 mmHg 50%
    13:00 +29°C° 0 mm 3 mps 763 mmHg 47%
    14:00 +29°C° 0 mm 2 mps 763 mmHg 47%
    15:00 +29°C° 0 mm 2 mps 762 mmHg 46%
    16:00 +29°C° 0 mm 2 mps 762 mmHg 46%
    17:00 +27°C° 0 mm 2 mps 762 mmHg 54%
    18:00 +26°C° 0 mm 2 mps 762 mmHg 62%
    19:00 +24°C° 0 mm 2 mps 762 mmHg 70%
    20:00 +23°C° 0 mm 2 mps 762 mmHg 73%
    21:00 +21°C° 0 mm 2 mps 762 mmHg 77%
    22:00 +20°C° 0 mm 2 mps 762 mmHg 80%
    23:00 +20°C° 0 mm 2 mps 762 mmHg 82%

    26 August, Monday

    Time Temperature Precipitation Wind Pressure Humidity
    00:00 +21°C° 0 mm 1 mps 762 mmHg 83%
    01:00 +20°C° 0 mm 1 mps 762 mmHg 84%
    02:00 +20°C° 0 mm 1 mps 762 mmHg 85%
    03:00 +20°C° 0 mm 1 mps 762 mmHg 86%
    04:00 +20°C° 0 mm 1 mps 762 mmHg 87%
    05:00 +21°C° 0 mm 1 mps 762 mmHg 84%
    06:00 +21°C° 0 mm 1 mps 762 mmHg 81%
    07:00 +22°C° 0 mm 1 mps 762 mmHg 79%
    08:00 +24°C° 0 mm 1 mps 762 mmHg 71%
    09:00 +26°C° 0 mm 1 mps 762 mmHg 63%
    10:00 +28°C° 0 mm 1 mps 762 mmHg 56%
    11:00 +29°C° 0 mm 2 mps 762 mmHg 51%
    12:00 +30°C° 0 mm 2 mps 762 mmHg 47%
    13:00 +31°C° 0 mm 2 mps 762 mmHg 43%
    14:00 +31°C° 0 mm 2 mps 762 mmHg 43%
    15:00 +31°C° 0 mm 2 mps 762 mmHg 43%
    16:00 +31°C° 0 mm 2 mps 761 mmHg 43%
    17:00 +29°C° 0 mm 2 mps 761 mmHg 52%
    18:00 +28°C° 0 mm 2 mps 762 mmHg 60%
    19:00 +26°C° 0 mm 2 mps 762 mmHg 68%
    20:00 +24°C° 0.1 mm 2 mps 762 mmHg 73%
    21:00 +21°C° 0.1 mm 2 mps 762 mmHg 79%
    22:00 +20°C° 0.1 mm 2 mps 763 mmHg 84%
    23:00 +19°C° 0 mm 2 mps 763 mmHg 87%
    Show more